Location: Peebles
(55.6412°N, 3.1714°W)
Time: 01:25:41
(UTC+01:00)

NAPA-1 - Pass Details

Date: 12 July 2022
Orbit: 525 x 528 km, 97.4° (Epoch: 14 August)

Event Time Altitude Azimuth Distance (km) Brightness Sun altitude
Exits shadow 00:12:19 - 221° (SW) 2,541 ? -11.1°
Reaches altitude 10° 00:15:17 10° 250° (WSW) 1,774 ? -11.2°
Maximum altitude 00:16:50 12° 274° (W) 1,645 ? -11.3°
Drops below altitude 10° 00:18:24 10° 299° (WNW) 1,780 ? -11.3°
Sets 00:21:45 0° 331° (NNW) 2,676 ? -11.4°
